Regional Weather Roundup
Issued by NWS State College, PA

Home | Current Version | Previous Version | Text Only | Print | Product List | Glossary On
Versions: 1 2 3 4 5 6 7 8 9 10 11 12 13 14 15 16 17 18 19 20 21 22 23 24 25 26 27 28 29 30 31 32 33 34 35 36 37 38 39 40 41 42 43 44 45 46 47 48 49 50
000
ASUS41 KCTP 212003
RWRCTP

REGIONAL WEATHER ROUNDUP
NATIONAL WEATHER SERVICE STATE COLLEGE PA
400 PM EDT MON JUL 21 2014

Note: "fair" indicates few or no clouds below 12,000 feet with no
significant weather and/or obstructions to visibility.

* = STATION THAT DOES NOT REPORT PRECIPITATION /E.G. RAIN...SNOW...ETC/
    THUNDER OR FOG.

PAZ002>004-007>009-013>016-020>023-029>032-212100-
WESTERN PENNSYLVANIA

CITY           SKY/WX    TMP DP  RH WIND       PRES   REMARKS
ERIE           SUNNY     77  66  68 N7        30.14S
MEADVILLE      SUNNY     82  61  48 NW8       30.15F
FRANKLIN*      CLOUDY    79  64  61 CALM      30.16F
NEW CASTLE       N/A     83  66  56 CALM      30.13F
BEAVER COUNTY  PTSUNNY   84  66  54 N3        30.14F
BUTLER*        MOSUNNY   81  66  61 CALM      30.15F
PITTSBURGH INT MOSUNNY   82  66  58 W3        30.13F
PITTSBURGH     MOSUNNY   84  66  54 SE7       30.12F
INDIANA*       PTSUNNY   81  66  61 CALM      30.18F
LATROBE        PTSUNNY   84  68  58 W6        30.14F
WASHINGTON CO* PTSUNNY   82  68  61 CALM      30.14S
$$

PAZ004>006-010>012-017>019-024>028-033>037-041-042-045-046-049>053-212100-
CENTRAL PENNSYLVANIA

CITY           SKY/WX    TMP DP  RH WIND       PRES   REMARKS
BRADFORD       CLOUDY    77  64  64 E3        30.18F
DUBOIS         MOSUNNY   80  66  62 VRB5      30.16F
CLEARFIELD     PTSUNNY   79  65  62 VRB5      30.17F
JOHNSTOWN      PTSUNNY   76  64  66 E3        30.19F
ALTOONA        PTSUNNY   79  68  69 SE8       30.18F
STATE COLLEGE  PTSUNNY   75  66  73 SE7       30.18F
WILLIAMSPORT   CLOUDY    80  66  62 S8        30.13F
SELINSGROVE    PTSUNNY   80  68  66 S8        30.16F
FT INDIANTOWN  PTSUNNY   77  65  67 S2        30.18F
CAPITAL CITY   CLOUDY    76  65  68 E6        30.17S
HARRISBURG     CLOUDY    79  65  62 CALM      30.16F
YORK           CLOUDY    79  66  64 S5        30.17F
$$

PAZ038>040-043-044-047-048-054-055-060>062-067>071-212100-
EASTERN PENNSYLVANIA

CITY           SKY/WX    TMP DP  RH WIND       PRES   REMARKS
SCRANTON       PTSUNNY   83  60  45 CALM      30.15F
MOUNT POCONO   CLOUDY    76  60  57 S8        30.21F
ALLENTOWN      PTSUNNY   83  62  49 CALM      30.16F
QUAKERTOWN*    MOCLDY    82  63  51 S5        30.18S
READING        CLOUDY    81  64  56 W6        30.16F
LANCASTER      CLOUDY    79  62  56 CALM      30.17F
COATESVILLE    PTCLDY    79  63  57 W3        30.19S
POTTSTOWN      CLOUDY    81  61  50 S5        30.18S
BLUE BELL      PTSUNNY   82  63  51 CALM      30.16S
DOYLESTOWN     MOSUNNY   79  63  57 S5        30.16F
WILLOW GROVE   NOT AVBL
NORTH PHILA    PTSUNNY   83  57  41 E7        30.17S
PHILADELPHIA   PTSUNNY   85  57  38 S6        30.15S
$$



USA.gov is the U.S. government's official web portal to all federal, state and local government web resources and services.